[[{"header":{"parameterUnit":"m.s-1","parameterCategory":1,"la1":30.2991,"la2":30.254,"lo1":-89.0895,"lo2":-89.0444,"dy":0.0017,"dx":0.0017,"nx":28,"ny":28,"refTime":"2024-09-26T03:00:00:Z","depth":0,"parameterNumber":2,"parameterNumberName":"U-component_of_WINDS"},"data":[0,0,0,0,0,0,0,0,0,0,0,0,0,0,0,0,0,0,0,0,0,0,0,0,0,0,0,0,0,0,0,0,0,0,0,0,0,0,0,0,0,0,0,0,0,0,0,0,0,0,0,0,0,0,0,0,0,0,5.3253,5.3254,0,5.3371,5.3373,5.3374,5.3327,5.3324,5.3321,5.3319,5.3439,5.3444,5.345,0,0,0,0,0,0,0,0,0,0,0,0,0,5.2985,5.299,5.3252,5.3254,5.3255,5.3371,5.3373,5.3374,5.3327,5.3324,5.332,5.3317,5.3437,5.3444,5.3451,0,0,0,0,0,0,0,0,0,0,0,0,0,5.3102,5.2991,5.3252,5.3246,5.3246,5.3371,5.3373,5.3375,5.3328,5.3324,5.332,5.3316,5.3435,5.3443,5.3452,5.3589,0,0,5.3478,5.3482,0,0,0,0,0,0,0,0,5.3095,5.3112,5.3245,5.3247,5.3247,5.333,5.3322,5.3446,5.3329,5.3297,5.3318,5.3314,5.3406,5.3417,5.3448,5.3594,5.3599,5.3479,5.3484,5.3488,5.349,0,0,0,0,0,0,0,5.3087,5.3106,5.3299,5.3247,5.3249,5.3237,5.3249,5.3346,5.3373,5.3299,5.3296,5.3311,5.3406,5.344,5.3451,5.3601,5.3479,5.3486,5.3492,5.3495,5.3867,5.3871,0,0,0,0,0,0,5.3079,5.31,5.3296,5.3303,5.316,5.3245,5.3259,5.3308,5.3372,5.3378,5.3315,5.3308,5.3427,5.344,5.3455,5.362,5.3488,5.3496,5.3501,5.3862,5.3868,5.3873,0,0,0,0,0,0,5.3073,5.3097,5.3291,5.3201,5.3224,5.3254,5.331,5.3312,5.3346,5.3384,5.3388,5.3344,5.3424,5.3442,5.3556,5.3623,5.35,5.3508,5.3857,5.3864,5.387,5.3951,0,0,0,0,0,0,5.3066,5.3095,5.3147,5.3202,5.3229,5.3391,5.3314,5.3317,5.3361,5.3355,5.3413,5.3418,5.3422,5.3543,5.3565,5.3633,5.3515,5.3851,5.386,5.3868,5.3942,5.396,5.3974,0,0,0,0,0,5.3056,5.3165,5.315,5.3174,5.3296,5.3394,5.341,5.3413,5.3367,5.342,5.3444,5.3416,5.3613,5.3555,5.3579,5.3651,5.3847,5.3857,5.3868,5.3935,5.3956,5.3974,0,0,0,0,0,0,5.3116,5.3172,5.3156,5.3286,5.3336,5.3386,5.3453,5.3435,5.3499,5.349,5.349,5.3504,5.3621,5.3647,5.3583,5.3787,5.3723,5.3738,5.3766,5.3786,5.3802,5.3793,5.3522,0,0,0,0,0,5.3145,5.3221,5.3265,5.3375,5.3401,5.3423,5.3466,5.3464,5.3516,5.3537,5.3569,5.362,5.3693,5.3741,5.381,5.3946,5.3958,5.4007,5.4023,5.4036,5.405,5.4124,5.4147,5.3907,5.3907,5.3907,0,0,5.3204,5.3243,5.3291,5.3388,5.3426,5.3505,5.3441,5.3526,5.3585,5.3549,5.3659,5.3685,5.3742,5.3867,5.3924,5.3893,5.4119,5.405,5.406,5.4066,5.4137,5.416,5.418,5.3915,5.3913,5.3912,0,0,5.3351,5.3389,5.3485,5.3526,5.3585,5.3599,5.3623,5.3677,5.3693,5.3803,5.3778,5.3847,5.3973,5.4015,5.4053,5.4219,5.4196,5.4241,5.4325,5.4398,5.4417,5.4434,5.4493,5.4514,5.4255,5.4255,5.4255,0,5.3417,5.3535,5.3537,5.3625,5.3668,5.3641,5.3738,5.3777,5.3856,5.3887,5.3851,5.4009,5.4046,5.4181,5.4222,5.4253,5.428,5.4234,5.4414,5.4431,5.4446,5.4503,5.4525,5.426,5.426,5.4259,5.4259,0,5.3613,5.3695,5.3765,5.3843,5.3895,5.3987,5.4003,5.4055,5.4049,5.4067,5.418,5.4223,5.4301,5.4333,5.4328,5.4469,5.4447,5.4413,5.4348,5.4474,5.4528,5.4549,5.4268,5.4266,5.4264,5.4263,0,0,5.38,5.3879,5.3905,5.3941,5.4005,5.4069,5.416,5.4237,5.4282,5.4338,5.4415,5.4523,5.4492,5.4535,5.4534,5.4598,5.4727,5.4556,5.4557,5.4586,5.4885,5.491,5.4935,5.4713,5.4717,5.472,5.488,0,5.3953,5.4114,5.4119,5.4266,5.4342,5.4318,5.4398,5.4446,5.4466,5.4533,5.4555,5.4632,5.4585,5.4611,5.4673,5.4698,5.4787,5.4687,5.4784,5.4787,5.477,5.4963,5.499,5.5138,5.4901,5.4904,5.4907,0,5.4153,5.4216,5.4371,5.4425,5.4457,5.4529,5.4601,5.4665,5.472,5.473,5.4779,5.477,5.4863,5.4796,5.4925,5.4857,5.4897,5.4916,5.4922,5.493,5.4854,5.4977,5.5186,5.5208,5.494,5.4937,5.4935,0,5.4274,5.4398,5.4507,5.4538,5.4604,5.4655,5.4685,5.4736,5.4782,5.4845,5.4875,5.4948,5.4987,5.5044,5.5054,5.5004,5.5184,5.5117,5.5195,5.5195,5.5233,5.5231,5.5452,5.526,5.526,5.5259,5.5259,0,5.4444,5.4539,5.4562,5.4629,5.4736,5.4741,5.4846,5.4873,5.4918,5.499,5.4973,5.5041,5.5051,5.5121,5.513,5.5236,5.5254,5.5265,5.5266,5.5266,5.5265,5.5292,5.5281,5.5265,5.5264,5.5263,5.5262,0,5.4597,5.4616,5.4733,5.4787,5.4803,5.4879,5.4925,5.4989,5.5008,5.5099,5.5121,5.515,5.5232,5.5248,5.5345,5.535,5.5477,5.5468,5.5458,5.5457,5.5534,5.5527,5.578,5.5814,5.56,5.5602,5.5604,0,5.4704,5.4777,5.4839,5.4886,5.4919,5.4995,5.5043,5.5051,5.5101,5.517,5.5226,5.5306,5.5371,5.5503,5.5533,5.5607,5.5599,5.5683,5.561,5.5608,5.56,5.5596,5.5603,5.5697,5.5699,5.5701,5.5702,0,5.4892,5.4898,5.4967,5.5041,5.5098,5.5156,5.5211,5.5251,5.5266,5.5324,5.5408,5.5458,5.5557,5.5637,5.5712,5.5742,5.5726,5.5725,5.5747,5.5748,5.5739,5.5745,5.5496,5.5719,5.5717,5.5716,5.5715,5.5715,5.5025,5.5089,5.5143,5.5221,5.5264,5.5316,5.5379,5.5407,5.5477,5.5558,5.5559,5.5651,5.5705,5.5803,5.5839,5.5911,5.5884,5.5916,5.5924,5.5931,5.5939,5.5729,5.5924,5.5924,5.5924,5.5923,5.5923,0,5.5212,5.5246,5.5318,5.5396,5.5457,5.5437,5.5497,5.555,5.5631,5.5683,5.5747,5.5844,5.5922,5.5959,5.6036,5.6086,5.6081,5.6106,5.6102,5.611,5.5958,5.5931,5.611,5.611,5.611,5.611,5.611,5.611,5.5316,5.5424,5.5437,5.5566,5.5599,5.5689,5.5726,5.5774,5.5815,5.5924,5.5989,5.6013,5.6059,5.6139,5.621,5.6219,5.6248,5.6277,5.6282,5.6139,5.612,5.6102,5.6077,5.6284,5.6284,5.6428,5.643,5.6431]},{"header":{"parameterUnit":"m.s-1","parameterCategory":1,"la1":30.2991,"la2":30.254,"lo1":-89.0895,"lo2":-89.0444,"dy":0.0017,"dx":0.0017,"nx":28,"ny":28,"refTime":"2024-09-26T03:00:00:Z","depth":0,"parameterNumber":3,"parameterNumberName":"V-component_of_WINDS"},"data":[0,0,0,0,0,0,0,0,0,0,0,0,0,0,0,0,0,0,0,0,0,0,0,0,0,0,0,0,0,0,0,0,0,0,0,0,0,0,0,0,0,0,0,0,0,0,0,0,0,0,0,0,0,0,0,0,0,0,-5.7774,-5.7777,0,-5.8039,-5.8042,-5.8045,-5.8045,-5.8041,-5.8038,-5.8034,-5.8305,-5.8315,-5.8326,0,0,0,0,0,0,0,0,0,0,0,0,0,-5.7269,-5.7279,-5.7774,-5.7777,-5.7781,-5.8039,-5.8042,-5.8046,-5.8045,-5.8041,-5.8037,-5.8033,-5.8302,-5.8314,-5.8327,0,0,0,0,0,0,0,0,0,0,0,0,0,-5.7507,-5.7282,-5.7774,-5.7811,-5.7818,-5.8038,-5.8042,-5.8047,-5.8046,-5.8041,-5.8036,-5.8031,-5.8298,-5.8313,-5.8328,-5.8529,0,0,-5.8376,-5.8383,0,0,0,0,0,0,0,0,-5.7493,-5.7525,-5.7803,-5.7809,-5.7816,-5.8003,-5.7964,-5.8208,-5.8047,-5.7959,-5.8034,-5.8028,-5.8209,-5.8232,-5.8293,-5.8541,-5.8553,-5.8378,-5.8387,-5.8394,-5.8398,0,0,0,0,0,0,0,-5.7477,-5.7514,-5.7879,-5.7807,-5.7815,-5.7816,-5.7844,-5.801,-5.811,-5.7967,-5.7967,-5.7998,-5.8212,-5.8278,-5.8299,-5.8557,-5.8377,-5.8391,-5.8401,-5.8407,-5.8985,-5.8991,0,0,0,0,0,0,-5.7453,-5.75,-5.7871,-5.7887,-5.7639,-5.7829,-5.786,-5.7949,-5.8108,-5.8127,-5.8003,-5.7997,-5.8253,-5.8281,-5.8309,-5.8555,-5.8394,-5.8408,-5.8417,-5.8979,-5.8987,-5.8993,0,0,0,0,0,0,-5.7442,-5.7486,-5.786,-5.7694,-5.7742,-5.7843,-5.7942,-5.7957,-5.8022,-5.8135,-5.8153,-5.8051,-5.825,-5.8287,-5.8474,-5.8564,-5.8415,-5.843,-5.8972,-5.8982,-5.899,-5.9049,0,0,0,0,0,0,-5.7427,-5.7482,-5.7558,-5.7696,-5.775,-5.8021,-5.7948,-5.7966,-5.8049,-5.8045,-5.8186,-5.8204,-5.8249,-5.8451,-5.849,-5.8583,-5.8442,-5.8965,-5.8976,-5.8987,-5.9039,-5.9059,-5.9075,0,0,0,0,0,-5.7409,-5.7564,-5.7562,-5.7607,-5.7848,-5.8026,-5.8058,-5.8106,-5.8057,-5.8135,-5.8208,-5.82,-5.8548,-5.847,-5.8514,-5.8613,-5.8959,-5.8973,-5.8986,-5.9031,-5.9055,-5.9075,0,0,0,0,0,0,-5.7434,-5.7582,-5.7582,-5.7786,-5.7894,-5.8026,-5.8126,-5.8129,-5.8253,-5.8244,-5.8299,-5.8331,-5.8519,-5.8585,-5.8495,-5.8817,-5.8748,-5.877,-5.8767,-5.879,-5.8808,-5.8789,-5.8455,0,0,0,0,0,-5.7463,-5.7595,-5.7718,-5.7885,-5.794,-5.8024,-5.8103,-5.8131,-5.8245,-5.829,-5.8377,-5.8488,-5.8622,-5.871,-5.884,-5.9048,-5.908,-5.9139,-5.9156,-5.9171,-5.919,-5.9308,-5.9336,-5.9037,-5.9037,-5.9037,0,0,-5.7525,-5.7622,-5.7702,-5.7893,-5.798,-5.8116,-5.8062,-5.8207,-5.8309,-5.8312,-5.8496,-5.8563,-5.869,-5.889,-5.8983,-5.8951,-5.928,-5.9188,-5.9198,-5.921,-5.9324,-5.9352,-5.9378,-5.9046,-5.9045,-5.9043,0,0,-5.7707,-5.7793,-5.7944,-5.8032,-5.8164,-5.822,-5.8256,-5.8388,-5.8434,-5.8618,-5.8624,-5.8746,-5.8976,-5.9067,-5.9144,-5.9362,-5.936,-5.9403,-5.9497,-5.9611,-5.9635,-5.9656,-5.9736,-5.9764,-5.9422,-5.9422,-5.9422,0,-5.7767,-5.7972,-5.802,-5.8168,-5.8252,-5.8262,-5.8415,-5.8498,-5.8666,-5.8725,-5.8687,-5.8978,-5.9064,-5.9286,-5.934,-5.9401,-5.9445,-5.9388,-5.9627,-5.9649,-5.967,-5.9746,-5.9776,-5.9426,-5.9426,-5.9426,-5.9425,0,-5.804,-5.8182,-5.8288,-5.8451,-5.8547,-5.8696,-5.8768,-5.886,-5.888,-5.894,-5.9129,-5.9233,-5.9385,-5.944,-5.946,-5.9666,-5.9643,-5.9616,-5.9548,-5.9702,-5.9775,-5.9805,-5.9433,-5.9431,-5.943,-5.9429,0,0,-5.8245,-5.8434,-5.8472,-5.8547,-5.8694,-5.8806,-5.8956,-5.9105,-5.9184,-5.9299,-5.9428,-5.9623,-5.96,-5.9687,-5.9718,-5.9818,-5.9987,-5.9779,-5.9783,-5.9815,-6.0222,-6.0242,-6.0275,-5.9986,-5.9992,-5.9996,-6.0212,0,-5.8445,-5.8712,-5.8761,-5.8994,-5.9127,-5.9139,-5.927,-5.9375,-5.9435,-5.9557,-5.9623,-5.9761,-5.9719,-5.9772,-5.9871,-5.9945,-6.0069,-5.993,-6.0107,-6.0113,-6.0076,-6.0313,-6.0335,-6.0534,-6.0241,-6.0245,-6.0249,0,-5.8712,-5.8836,-5.9083,-5.9214,-5.9272,-5.9389,-5.9531,-5.9647,-5.9767,-5.9803,-5.9901,-5.9922,-6.0079,-6.0003,-6.0222,-6.0127,-6.0202,-6.0249,-6.0258,-6.0278,-6.0191,-6.0341,-6.0598,-6.0628,-6.0294,-6.029,-6.0287,0,-5.8839,-5.9067,-5.9245,-5.9309,-5.9466,-5.9548,-5.9617,-5.9732,-5.9819,-5.9943,-6.0001,-6.0141,-6.0218,-6.0327,-6.0385,-6.0324,-6.0601,-6.0529,-6.0637,-6.0636,-6.0695,-6.0691,-6.097,-6.0741,-6.0741,-6.074,-6.074,0,-5.9058,-5.9209,-5.9305,-5.9414,-5.9584,-5.9639,-5.9806,-5.9874,-5.9976,-6.01,-6.0118,-6.0234,-6.0303,-6.0429,-6.0475,-6.0651,-6.0685,-6.072,-6.0731,-6.0719,-6.0715,-6.077,-6.0759,-6.0748,-6.0747,-6.0745,-6.0744,0,-5.9228,-5.9298,-5.9493,-5.9627,-5.9664,-5.9783,-5.9898,-6.0005,-6.0065,-6.0221,-6.0261,-6.0356,-6.0505,-6.0574,-6.0758,-6.0789,-6.099,-6.099,-6.0949,-6.0954,-6.1058,-6.1048,-6.1383,-6.1431,-6.1169,-6.1172,-6.1174,0,-5.9363,-5.948,-5.9626,-5.9711,-5.9782,-5.9917,-6.0007,-6.0066,-6.0158,-6.0305,-6.0395,-6.0545,-6.0669,-6.0907,-6.0993,-6.1134,-6.1139,-6.1247,-6.1161,-6.1146,-6.1143,-6.1136,-6.1149,-6.1263,-6.1265,-6.1267,-6.1269,0,-5.9597,-5.9626,-5.9754,-5.9896,-6.0002,-6.0116,-6.0228,-6.0296,-6.0373,-6.0476,-6.0629,-6.0725,-6.0914,-6.1064,-6.1212,-6.1284,-6.1291,-6.1296,-6.1328,-6.1319,-6.1291,-6.1309,-6.0994,-6.1288,-6.1286,-6.1285,-6.1284,-6.1283,-5.9755,-5.986,-5.998,-6.0123,-6.0213,-6.0318,-6.0426,-6.05,-6.0629,-6.0788,-6.0814,-6.0978,-6.1097,-6.1296,-6.1374,-6.1503,-6.1478,-6.1525,-6.1537,-6.1548,-6.1555,-6.1269,-6.153,-6.153,-6.1529,-6.1529,-6.1529,0,-5.9991,-6.0069,-6.0199,-6.0356,-6.0469,-6.0465,-6.0589,-6.0684,-6.0828,-6.0938,-6.1059,-6.1237,-6.1382,-6.148,-6.1627,-6.1712,-6.1719,-6.1749,-6.1744,-6.1761,-6.1568,-6.1526,-6.1742,-6.1742,-6.1741,-6.1741,-6.1741,-6.1741,-6.0127,-6.0305,-6.0349,-6.0573,-6.065,-6.081,-6.0882,-6.0979,-6.1067,-6.1265,-6.1386,-6.1448,-6.1554,-6.171,-6.1844,-6.1869,-6.1923,-6.1955,-6.1979,-6.1797,-6.1775,-6.1753,-6.1714,-6.1965,-6.1966,-6.2161,-6.2163,-6.2164]}]]